[[{"header":{"parameterUnit":"m.s-1","parameterCategory":1,"la1":30.2991,"la2":30.254,"lo1":-89.0895,"lo2":-89.0444,"dy":0.0017,"dx":0.0017,"nx":28,"ny":28,"refTime":"2023-09-04T03:00:00:Z","depth":0,"parameterNumber":2,"parameterNumberName":"U-component_of_WINDS"},"data":[0,0,0,0,0,0,0,0,0,0,0,0,0,0,0,0,0,0,0,0,0,0,0,0,0,0,0,0,0,0,0,0,0,0,0,0,0,0,0,0,0,0,0,0,0,0,0,0,0,0,0,0,0,0,0,0,0,0,-4.0781,-4.0782,0,-4.0874,-4.0875,-4.0876,-4.0888,-4.0887,-4.0886,-4.0885,-4.0977,-4.098,-4.0983,0,0,0,0,0,0,0,0,0,0,0,0,0,-4.0608,-4.0611,-4.0781,-4.0782,-4.0783,-4.0874,-4.0875,-4.0877,-4.0888,-4.0887,-4.0886,-4.0885,-4.0976,-4.098,-4.0983,0,0,0,0,0,0,0,0,0,0,0,0,0,-4.069,-4.0612,-4.0781,-4.08,-4.0803,-4.0874,-4.0875,-4.0877,-4.0889,-4.0887,-4.0886,-4.0885,-4.0974,-4.0979,-4.0984,-4.1041,0,0,-4.0999,-4.1001,0,0,0,0,0,0,0,0,-4.0685,-4.0696,-4.0796,-4.0799,-4.0802,-4.0868,-4.0848,-4.0932,-4.0889,-4.0856,-4.0885,-4.0884,-4.0941,-4.0949,-4.0969,-4.1045,-4.1049,-4.0999,-4.1002,-4.1004,-4.1006,0,0,0,0,0,0,0,-4.068,-4.0693,-4.0818,-4.0797,-4.0801,-4.0803,-4.0813,-4.0864,-4.0905,-4.0859,-4.086,-4.0871,-4.0943,-4.0965,-4.0971,-4.105,-4.0999,-4.1004,-4.1007,-4.1008,-4.1176,-4.1177,0,0,0,0,0,0,-4.0671,-4.0688,-4.0815,-4.082,-4.0739,-4.0807,-4.0818,-4.0848,-4.0904,-4.0912,-4.0872,-4.0871,-4.0957,-4.0966,-4.0975,-4.1043,-4.1004,-4.1009,-4.1012,-4.1174,-4.1176,-4.1178,0,0,0,0,0,0,-4.0667,-4.0682,-4.0811,-4.0754,-4.0771,-4.0811,-4.0845,-4.0851,-4.0873,-4.0914,-4.0921,-4.0887,-4.0956,-4.0968,-4.1024,-4.1047,-4.1011,-4.1016,-4.1173,-4.1175,-4.1177,-4.1182,0,0,0,0,0,0,-4.0662,-4.0681,-4.0704,-4.0755,-4.0774,-4.086,-4.0846,-4.0854,-4.0881,-4.0881,-4.093,-4.0937,-4.0956,-4.1017,-4.1029,-4.1053,-4.1019,-4.1171,-4.1174,-4.1176,-4.118,-4.1184,-4.1187,0,0,0,0,0,-4.0656,-4.0701,-4.0705,-4.072,-4.0804,-4.0861,-4.0872,-4.0894,-4.0883,-4.0906,-4.0933,-4.0935,-4.1043,-4.1023,-4.1036,-4.1062,-4.1169,-4.1173,-4.1176,-4.1178,-4.1183,-4.1187,0,0,0,0,0,0,-4.065,-4.0708,-4.0713,-4.0776,-4.0814,-4.0863,-4.0892,-4.0899,-4.094,-4.0937,-4.0962,-4.0973,-4.1028,-4.1051,-4.1027,-4.1119,-4.1105,-4.1111,-4.1101,-4.1107,-4.1111,-4.1102,-4.1023,0,0,0,0,0,-4.0656,-4.0699,-4.0747,-4.0798,-4.0817,-4.0852,-4.0877,-4.0891,-4.0931,-4.0946,-4.0977,-4.1014,-4.1056,-4.1083,-4.1125,-4.1184,-4.1194,-4.1209,-4.1212,-4.1215,-4.1219,-4.1251,-4.1257,-4.1189,-4.1189,-4.1189,0,0,-4.0668,-4.0706,-4.0731,-4.0798,-4.0829,-4.0871,-4.0865,-4.091,-4.0941,-4.0953,-4.1008,-4.1032,-4.1075,-4.1133,-4.116,-4.1154,-4.1241,-4.122,-4.1222,-4.1224,-4.1255,-4.1262,-4.1267,-4.1191,-4.1191,-4.1191,0,0,-4.0712,-4.0746,-4.0791,-4.0823,-4.087,-4.0893,-4.0904,-4.0953,-4.097,-4.1026,-4.1035,-4.1072,-4.1144,-4.1174,-4.1199,-4.1255,-4.1258,-4.1268,-4.1287,-4.1317,-4.1322,-4.1327,-4.1345,-4.1351,-4.1272,-4.1272,-4.1272,0,-4.0721,-4.0787,-4.0813,-4.0859,-4.0886,-4.0901,-4.0946,-4.0975,-4.1032,-4.1051,-4.1044,-4.1135,-4.1165,-4.1229,-4.1242,-4.1263,-4.1274,-4.1261,-4.132,-4.1325,-4.133,-4.1347,-4.1354,-4.1273,-4.1273,-4.1273,-4.1273,0,-4.0795,-4.084,-4.0871,-4.0928,-4.096,-4.1004,-4.1035,-4.1064,-4.1076,-4.1099,-4.1155,-4.1192,-4.124,-4.1257,-4.1269,-4.1323,-4.1317,-4.1315,-4.1301,-4.1337,-4.1353,-4.136,-4.1274,-4.1274,-4.1274,-4.1273,0,0,-4.0835,-4.0906,-4.0917,-4.0942,-4.0996,-4.1031,-4.1076,-4.1125,-4.1148,-4.1188,-4.1225,-4.1286,-4.1284,-4.1312,-4.1328,-4.1355,-4.1394,-4.1349,-4.135,-4.1354,-4.1454,-4.1453,-4.146,-4.1398,-4.14,-4.1401,-4.1449,0,-4.0883,-4.0965,-4.0989,-4.1057,-4.1098,-4.1113,-4.1152,-4.1189,-4.1212,-4.1249,-4.1274,-4.1316,-4.1312,-4.1329,-4.1357,-4.1383,-4.1414,-4.1381,-4.143,-4.1432,-4.1416,-4.1469,-4.1469,-4.1513,-4.1456,-4.1457,-4.1458,0,-4.0949,-4.0991,-4.1063,-4.1111,-4.113,-4.1164,-4.121,-4.1247,-4.1288,-4.1303,-4.1335,-4.1348,-4.1394,-4.1379,-4.1442,-4.1419,-4.1441,-4.1457,-4.1459,-4.1462,-4.1445,-4.1471,-4.1528,-4.1533,-4.1469,-4.1468,-4.1467,0,-4.0968,-4.1043,-4.1095,-4.1117,-4.1175,-4.1199,-4.1224,-4.1264,-4.1291,-4.1332,-4.1349,-4.1394,-4.1418,-4.1452,-4.1476,-4.1464,-4.1536,-4.1524,-4.1548,-4.1547,-4.156,-4.1558,-4.1618,-4.1579,-4.1579,-4.1578,-4.1578,0,-4.1017,-4.106,-4.1104,-4.1136,-4.1184,-4.1212,-4.1259,-4.1284,-4.132,-4.1356,-4.1372,-4.1406,-4.1437,-4.1474,-4.1494,-4.1541,-4.1553,-4.1565,-4.1569,-4.1562,-4.156,-4.1574,-4.1571,-4.158,-4.158,-4.1579,-4.1579,0,-4.1044,-4.1076,-4.1134,-4.1185,-4.1199,-4.1232,-4.1275,-4.1305,-4.133,-4.1375,-4.1388,-4.1425,-4.147,-4.1499,-4.1555,-4.1568,-4.162,-4.1624,-4.1606,-4.1607,-4.1628,-4.1625,-4.1697,-4.1707,-4.1664,-4.1664,-4.1664,0,-4.1072,-4.1106,-4.1161,-4.1187,-4.1212,-4.1254,-4.1282,-4.1311,-4.134,-4.139,-4.1414,-4.146,-4.1498,-4.1569,-4.16,-4.1643,-4.1647,-4.167,-4.1654,-4.1645,-4.1645,-4.1641,-4.1644,-4.1671,-4.1672,-4.1672,-4.1672,0,-4.1117,-4.1132,-4.1173,-4.1219,-4.1253,-4.1291,-4.1328,-4.1348,-4.1384,-4.1415,-4.1461,-4.1491,-4.155,-4.1594,-4.1641,-4.1665,-4.1674,-4.1678,-4.1685,-4.1676,-4.1663,-4.1668,-4.161,-4.1675,-4.1675,-4.1675,-4.1674,-4.1674,-4.1144,-4.1174,-4.1217,-4.1262,-4.1294,-4.1329,-4.136,-4.1389,-4.1429,-4.1479,-4.1494,-4.1542,-4.1582,-4.1645,-4.1671,-4.1708,-4.1705,-4.1716,-4.1718,-4.172,-4.1719,-4.166,-4.1717,-4.1717,-4.1717,-4.1717,-4.1717,0,-4.1188,-4.1217,-4.1258,-4.1311,-4.1346,-4.1354,-4.1396,-4.1424,-4.1466,-4.1504,-4.1542,-4.1594,-4.1638,-4.1674,-4.1719,-4.1741,-4.1746,-4.1752,-4.1749,-4.1754,-4.172,-4.1708,-4.1747,-4.1747,-4.1747,-4.1747,-4.1747,-4.1747,-4.1215,-4.1265,-4.1284,-4.135,-4.1379,-4.1427,-4.145,-4.1482,-4.1512,-4.157,-4.1607,-4.1631,-4.1668,-4.1715,-4.1755,-4.1765,-4.1779,-4.1783,-4.1793,-4.176,-4.1757,-4.1753,-4.1742,-4.1787,-4.1787,-4.1824,-4.1824,-4.1824]},{"header":{"parameterUnit":"m.s-1","parameterCategory":1,"la1":30.2991,"la2":30.254,"lo1":-89.0895,"lo2":-89.0444,"dy":0.0017,"dx":0.0017,"nx":28,"ny":28,"refTime":"2023-09-04T03:00:00:Z","depth":0,"parameterNumber":3,"parameterNumberName":"V-component_of_WINDS"},"data":[0,0,0,0,0,0,0,0,0,0,0,0,0,0,0,0,0,0,0,0,0,0,0,0,0,0,0,0,0,0,0,0,0,0,0,0,0,0,0,0,0,0,0,0,0,0,0,0,0,0,0,0,0,0,0,0,0,0,3.3104,3.3104,0,3.3151,3.3151,3.3152,3.3091,3.3089,3.3086,3.3084,3.3127,3.3131,3.3134,0,0,0,0,0,0,0,0,0,0,0,0,0,3.2958,3.2961,3.3104,3.3104,3.3105,3.3151,3.3151,3.3152,3.3091,3.3088,3.3086,3.3083,3.3126,3.313,3.3134,0,0,0,0,0,0,0,0,0,0,0,0,0,3.3015,3.2962,3.3104,3.308,3.3079,3.315,3.3151,3.3152,3.3092,3.3088,3.3085,3.3082,3.3125,3.313,3.3135,3.323,0,0,3.3149,3.3151,0,0,0,0,0,0,0,0,3.3011,3.302,3.3083,3.3082,3.308,3.3112,3.3116,3.3178,3.3093,3.3087,3.3084,3.308,3.3125,3.3129,3.3145,3.3232,3.3234,3.315,3.3153,3.3155,3.3156,0,0,0,0,0,0,0,3.3008,3.3018,3.3122,3.3084,3.3082,3.3066,3.3071,3.3127,3.3123,3.3087,3.3083,3.3089,3.3123,3.3141,3.3146,3.3234,3.3149,3.3154,3.3157,3.3159,3.3403,3.3407,0,0,0,0,0,0,3.3007,3.3015,3.312,3.3123,3.3037,3.3072,3.3076,3.3105,3.3123,3.3122,3.3092,3.3086,3.3134,3.314,3.3147,3.326,3.3155,3.3159,3.3162,3.34,3.3404,3.3408,0,0,0,0,0,0,3.3004,3.3017,3.3119,3.3068,3.308,3.3078,3.311,3.3107,3.3125,3.3127,3.3125,3.3111,3.3132,3.314,3.321,3.3261,3.3161,3.3166,3.3395,3.3401,3.3406,3.3487,0,0,0,0,0,0,3.3,3.3016,3.3053,3.3069,3.3083,3.3182,3.3113,3.3111,3.3134,3.3127,3.3144,3.3143,3.313,3.3204,3.3215,3.3265,3.3169,3.3391,3.3398,3.3404,3.348,3.3495,3.3507,0,0,0,0,0,3.2995,3.3073,3.3055,3.3068,3.3129,3.3185,3.3193,3.3177,3.3138,3.3175,3.3176,3.3143,3.3254,3.3211,3.3224,3.3276,3.3387,3.3396,3.3404,3.3474,3.3492,3.3507,0,0,0,0,0,0,3.306,3.3074,3.3055,3.3141,3.3163,3.3175,3.322,3.3197,3.3228,3.322,3.3198,3.3202,3.3278,3.3284,3.3236,3.337,3.3314,3.3325,3.3363,3.338,3.3393,3.3389,3.3173,0,0,0,0,0,3.3085,3.3131,3.314,3.3215,3.3227,3.3223,3.3246,3.3233,3.3254,3.3262,3.3268,3.3289,3.3329,3.3355,3.3391,3.3481,3.3484,3.3524,3.3537,3.3549,3.3558,3.3606,3.3624,3.3435,3.3435,3.3434,0,0,3.3135,3.3149,3.3179,3.3228,3.3243,3.3291,3.323,3.3282,3.3317,3.3269,3.3336,3.3342,3.3364,3.3445,3.3481,3.3452,3.3611,3.3559,3.3568,3.3571,3.3617,3.3635,3.365,3.344,3.3439,3.3438,0,0,3.3251,3.3266,3.333,3.3348,3.3373,3.337,3.3386,3.3403,3.3405,3.3473,3.3439,3.3479,3.3548,3.3565,3.3583,3.3709,3.3679,3.3721,3.3792,3.3839,3.3854,3.3867,3.3912,3.3928,3.3731,3.3731,3.3731,0,3.3309,3.3381,3.3366,3.3421,3.3444,3.3406,3.3471,3.3488,3.3523,3.3539,3.3508,3.3594,3.3606,3.3691,3.3722,3.3738,3.3754,3.3718,3.3854,3.3867,3.3879,3.3921,3.3938,3.3736,3.3735,3.3735,3.3734,0,3.3452,3.3502,3.355,3.3588,3.3616,3.3676,3.3669,3.37,3.3685,3.3685,3.3754,3.3768,3.3807,3.3826,3.3811,3.3909,3.3891,3.3857,3.38,3.3902,3.3941,3.3957,3.3743,3.3741,3.374,3.3738,0,0,3.3606,3.3638,3.3656,3.3673,3.3699,3.3737,3.3795,3.3836,3.3862,3.3888,3.3936,3.3997,3.3966,3.3986,3.3973,3.4015,3.4114,3.3976,3.3976,3.4001,3.4223,3.4248,3.4267,3.4096,3.4099,3.4101,3.4221,0,3.3722,3.3824,3.3814,3.3911,3.3957,3.3923,3.3974,3.3995,3.3998,3.4036,3.4038,3.4081,3.4038,3.405,3.4091,3.4094,3.4158,3.4085,3.4138,3.4141,3.4133,3.4287,3.4312,3.4425,3.4236,3.4239,3.4241,0,3.387,3.3904,3.4006,3.4028,3.4047,3.4093,3.4129,3.4167,3.4191,3.419,3.4214,3.4194,3.4252,3.4196,3.4275,3.4225,3.4247,3.4252,3.4256,3.4259,3.4196,3.4293,3.446,3.4477,3.4265,3.4263,3.4261,0,3.3972,3.4044,3.4114,3.413,3.4157,3.419,3.4202,3.4223,3.4249,3.4281,3.4297,3.4335,3.4355,3.4385,3.4376,3.4336,3.4457,3.4399,3.4456,3.4457,3.4481,3.448,3.4654,3.4498,3.4498,3.4498,3.4497,0,3.4101,3.4165,3.4161,3.4204,3.4275,3.4262,3.4332,3.434,3.4359,3.4403,3.4376,3.4417,3.4403,3.4444,3.4437,3.4503,3.4513,3.4513,3.451,3.4514,3.4514,3.4527,3.4518,3.4502,3.4501,3.45,3.4499,0,3.4226,3.4226,3.4301,3.4321,3.4328,3.4379,3.4396,3.4436,3.4438,3.4494,3.4506,3.4508,3.4554,3.4549,3.46,3.4595,3.4678,3.4666,3.467,3.4667,3.4724,3.4719,3.4911,3.4935,3.4765,3.4767,3.4768,0,3.4308,3.4356,3.4383,3.4412,3.4427,3.4473,3.45,3.449,3.4519,3.4551,3.4588,3.4632,3.4667,3.4743,3.4748,3.4787,3.4775,3.484,3.4781,3.4785,3.4776,3.4772,3.4777,3.4851,3.4853,3.4855,3.4856,0,3.4453,3.4451,3.4492,3.4534,3.4567,3.4598,3.4627,3.4652,3.4645,3.4678,3.4727,3.4754,3.4808,3.4852,3.489,3.4901,3.4878,3.4875,3.489,3.4895,3.4895,3.4895,3.4701,3.487,3.4869,3.4868,3.4867,3.4866,3.4558,3.46,3.4626,3.4673,3.4694,3.4722,3.4762,3.477,3.4811,3.4855,3.4847,3.4901,3.4925,3.4973,3.4989,3.5031,3.5007,3.5029,3.5034,3.504,3.5046,3.489,3.5038,3.5037,3.5037,3.5037,3.5036,0,3.4701,3.4717,3.476,3.4803,3.484,3.4817,3.4848,3.488,3.4929,3.4954,3.499,3.5046,3.509,3.51,3.5141,3.5173,3.5163,3.5184,3.5181,3.5184,3.5065,3.5048,3.5192,3.5192,3.5191,3.5191,3.5191,3.5191,3.478,3.485,3.4852,3.4933,3.4948,3.5003,3.5023,3.5048,3.5069,3.5133,3.517,3.5177,3.5197,3.524,3.5279,3.5281,3.5297,3.5322,3.5319,3.5208,3.5192,3.5177,3.5161,3.5326,3.5326,3.5434,3.5435,3.5436]}]]